Regional Weather Roundup
Issued by NWS Sterling, VA

Home | Current Version | Previous Version | Graphics & Text | Print | Product List | Glossary On
Versions: 1 2 3 4 5 6 7 8 9 10 11 12 13 14 15 16 17 18 19 20 21 22 23 24 25 26 27
000
ASUS41 KLWX 250210
RWRLWX

REGIONAL WEATHER ROUNDUP
NATIONAL WEATHER SERVICE BALTIMORE MD/WASHINGTON DC
1000 PM EDT SUN JUL 24 2016

Note: "FAIR" indicates few or no clouds below 12,000 feet
with no significant weather and/or obstructions to visibility.
 TC=TEMPERATURE CELSIUS

 * =Non NWS site. Station does not report precipitation (e.g. rain,
    snow, etc.), thunder, or fog.

DCZ001-MDZ009-015-VAZ040>042-051-053>054-250300-
WASHINGTON METRO

CITY           SKY/WX    TMP DP  RH WIND       PRES   REMARKS
WASHINGTON NAT MOCLDY    87  71  58 S8        29.97R HX  93
DULLES         CLOUDY    88  68  51 W6        29.99R HX  91
ANDREWS AFB    CLOUDY    81  72  72 S7        29.98R
FT BELVOIR     FAIR      80  73  78 CALM      29.97R
QUANTICO       FAIR      87  72  60 S8        29.98R HX  93
COLLEGE PARK*  FAIR      86  70  58 CALM      29.97R HX  90
LEESBURG*      MOCLDY    88  73  62 CALM      30.00R HX  96
MANASSAS*      PTCLDY    84  72  65 S5        29.97R
GAITHERSBURG*  CLOUDY    82  70  65 NW6       30.04R

$$

MDZ006>007-011-014-250300-
BALTIMORE METRO

CITY           SKY/WX    TMP DP  RH WIND       PRES   REMARKS
BWI AIRPORT    CLOUDY    83  70  64 S3        29.97R
MD SCIENCE CTR   N/A     88  68  51 MISG      29.98R HX  91
MARTIN STATE   CLOUDY    84  79  84 CALM      29.99R HX  96
ANNAPOLIS      CLOUDY    86  77  74 S8        29.97R HX  97
FORT MEADE*    CLOUDY    75  72  88 CALM      30.00R

$$

MDZ012-015-019>023-250300-
MARYLAND EASTERN SHORE

CITY           SKY/WX    TMP DP  RH WIND       PRES   REMARKS
OCEAN CITY     CLEAR     79  77  94 VRB3      30.01R
SALISBURY      PTCLDY    78  74  87 S5        30.00R
BAY BRIDGE AP* CLOUDY    86  77  74 S6        29.98R HX  97
CAMBRIDGE*     CLOUDY    79  72  78 SE3       29.99R
EASTON*        CLOUDY    86  77  74 S5        30.03R HX  96

$$

MDZ017>025-250300-
SOUTHERN MARYLAND

CITY           SKY/WX    TMP DP  RH WIND       PRES   REMARKS
PATUXENT RIVER MOCLDY    85  77  77 SE8       29.99R HX  95
ST INIGOES     PTCLDY    85  79  82 E6        29.98R HX  98
LEONARDTOWN*   PTCLDY    82  77  83 SE3       30.01R HX  91

$$

MDZ003>005-250300-
NORTH CENTRAL MARYLAND

CITY           SKY/WX    TMP DP  RH WIND       PRES   REMARKS
FREDERICK*     CLOUDY    81  72  74 S8        30.01R
HAGERSTOWN APT CLOUDY    81  71  71 E7        30.00R

$$

MDZ501>502-250300-
WESTERN MARYLAND

CITY           SKY/WX    TMP DP  RH WIND       PRES   REMARKS
OAKLAND*       CLOUDY    70  63  78 CALM      30.14R
CUMBERLAND*    CLOUDY    79  72  78 N5        30.05R

$$

VAZ025>031-250300-
SHENANDOAH VALLEY

CITY           SKY/WX    TMP DP  RH WIND       PRES   REMARKS
WINCHESTER*    FAIR      77  72  83 CALM      30.00S
FRONT ROYAL*   MOCLDY    79  72  78 E6        30.01R
LURAY*         FAIR      79  72  78 CALM      30.03R
NEW MARKET*    FAIR     N/A N/A N/A W6        30.01R
STAUNTON*      FAIR      79  71  75 CALM      30.07R
WAYNESBORO*    FAIR      82  70  68 N3        30.06R

$$

WVZ021-048>050-054>055-250300-
EASTERN WEST VIRGINIA PANHANDLE

CITY           SKY/WX    TMP DP  RH WIND       PRES   REMARKS
MARTINSBURG    FAIR      79  71  76 SW5       29.99R
PETERSBURG*    FAIR      79  73  81 CALM      30.01R

$$

VAZ036>039-050-250300-
CENTRAL FOOTHILLS

CITY           SKY/WX    TMP DP  RH WIND       PRES   REMARKS
CHARLOTTESVILL MOCLDY    86  73  65 CALM      29.99S HX  93
CULPEPER*      FAIR      80  76  87 CALM      29.99R
ORANGE*          N/A     82  75  78 CALM      30.01R
GORDONSVILLE*  FAIR      80  77  90 CALM      29.99R
WARRENTON*     FAIR      82  71  69 CALM      29.98R

$$

VAZ055>057-250300-
NORTH AND CENTRAL PIEDMONT

CITY           SKY/WX    TMP DP  RH WIND       PRES   REMARKS
FREDERICKSBRG* FAIR      84  77  79 CALM      29.97R HX  94
STAFFORD*      FAIR      79  76  90 CALM      30.02R

$$

NCZ024-NYZ072-PAZ021-071-VAZ022-071-250300-
OTHER REGIONAL OBSERVATIONS

CITY           SKY/WX    TMP DP  RH WIND       PRES   REMARKS
NEW YORK CITY  CLEAR     83  66  56 VRB6      29.99R
PHILADELPHIA   MOCLDY    82  65  56 S5        29.99R
PITTSBURGH     CLOUDY    73  71  93 S5        30.02S
ROANOKE        FAIR      85  70  60 SE5       30.06R
RICHMOND       FAIR      83  76  79 S7        29.99R HX  91
RALEIGH        MOCLDY    84  74  71 SE3       30.03R HX  91

$$

ANZ530>537-250300-
MARINE OBSERVATIONS

STATION/POSITION TIME  TEMP    WIND        PRES
                       AIR SEA DIR/SP/G
                 (UTC) (F)     (DEG/KT/KT) (MB)
THOMAS PT LIGHT  0200   86 84  170/ 13/ 14 1016.3R
BALT KEY BRIDGE  0142          150/ 10/ 12   N/A
COVE POINT       0142          190/ 12/ 14   N/A
LEWISETTA        0142      88  170/  6/  7   N/A
SOLOMONS ISLAND  0148      86  140/  7/  9   N/A
PINEY POINT      0142          160/ 10/ 11   N/A

$$





USA.gov is the U.S. government's official web portal to all federal, state and local government web resources and services.